| time (UTC) | temp C | wind direction | speed KPH | gust KPH | rain 1hr cm | rain 24hr cm | rain mn cm | humidity % | barometer mb |
| 20260904034554 | 19 | 214 | 0.0 | 0.0 | 0.00 | 0.20 | 0.00 | 79 | 1015.1 |
| 20260904033059 | 19 | 200 | 0.0 | 0.0 | 0.00 | 0.20 | 0.00 | 78 | 1015.0 |
| 20260904031603 | 19 | 209 | 0.0 | 0.0 | 0.00 | 0.20 | 0.00 | 78 | 1015.2 |
| 20260904030050 | 19 | 208 | 0.0 | 0.0 | 0.00 | 0.20 | 0.00 | 78 | 1015.4 |
| 20260904024649 | 19 | 208 | 0.0 | 0.0 | 0.00 | 0.20 | 0.00 | 78 | 1015.4 |
| 20260904023048 | 19 | 208 | 0.0 | 0.0 | 0.00 | 0.20 | 0.00 | 78 | 1015.4 |
| 20260904021550 | 19 | 208 | 0.0 | 0.0 | 0.00 | 0.20 | 0.00 | 78 | 1015.8 |
| 20260904020043 | 19 | 209 | 0.0 | 0.0 | 0.00 | 0.20 | 0.00 | 77 | 1016.0 |
| 20260904014544 | 19 | 188 | 0.0 | 0.0 | 0.00 | 0.20 | 0.00 | 77 | 1016.1 |
| 20260904013041 | 19 | 188 | 0.0 | 0.0 | 0.00 | 0.20 | 0.00 | 77 | 1016.2 |
| 20260904011538 | 19 | 188 | 0.0 | 0.0 | 0.00 | 0.20 | 0.00 | 77 | 1016.3 |
| 20260904010039 | 20 | 188 | 0.0 | 0.0 | 0.00 | 0.20 | 0.00 | 77 | 1016.3 |
| 20260904004534 | 20 | 188 | 0.0 | 0.0 | 0.00 | 0.20 | 0.00 | 77 | 1016.4 |
| 20260904003032 | 20 | 188 | 0.0 | 0.0 | 0.00 | 0.20 | 0.00 | 78 | 1016.6 |
| 20260904001530 | 20 | 188 | 0.0 | 0.0 | 0.00 | 0.20 | 0.00 | 78 | 1016.7 |
| 20260904000029 | 20 | 188 | 0.0 | 0.0 | 0.00 | 0.20 | 0.00 | 79 | 1016.9 |
| 20260903234528 | 20 | 202 | 0.0 | 0.0 | 0.00 | 0.20 | 0.00 | 79 | 1017.0 |
| 20260903233033 | 20 | 202 | 0.0 | 0.0 | 0.00 | 0.20 | 0.00 | 79 | 1017.1 |
| 20260903231526 | 20 | 202 | 0.0 | 0.0 | 0.00 | 0.20 | 0.00 | 79 | 1017.1 |
| 20260903230026 | 20 | 199 | 0.0 | 0.0 | 0.00 | 0.20 | 0.00 | 79 | 1017.2 |
| 20260903224530 | 20 | 199 | 0.0 | 0.0 | 0.00 | 0.20 | 0.00 | 79 | 1017.2 |
| 20260903223022 | 20 | 197 | 0.0 | 0.0 | 0.00 | 0.20 | 0.00 | 79 | 1017.2 |
| 20260903221539 | 20 | 197 | 0.0 | 0.0 | 0.00 | 0.20 | 0.00 | 78 | 1017.5 |
| 20260903220018 | 20 | 197 | 0.0 | 0.0 | 0.00 | 0.20 | 0.20 | 79 | 1017.8 |
| 20260903214518 | 20 | 197 | 0.0 | 0.0 | 0.00 | 0.20 | 0.20 | 79 | 1017.8 |
| 20260903213021 | 20 | 198 | 0.0 | 0.0 | 0.00 | 0.20 | 0.20 | 79 | 1017.9 |
| 20260903211517 | 20 | 198 | 0.0 | 0.0 | 0.00 | 0.20 | 0.20 | 79 | 1017.9 |
| 20260903210017 | 20 | 196 | 0.0 | 0.0 | 0.00 | 0.20 | 0.20 | 79 | 1018.1 |
| 20260903204516 | 20 | 196 | 0.0 | 0.0 | 0.00 | 0.20 | 0.20 | 80 | 1018.0 |
| 20260903203020 | 20 | 196 | 0.0 | 0.0 | 0.00 | 0.20 | 0.20 | 80 | 1018.0 |
| 20260903201515 | 20 | 196 | 0.0 | 0.0 | 0.00 | 0.20 | 0.20 | 80 | 1018.0 |
| 20260903200025 | 20 | 197 | 0.0 | 0.0 | 0.00 | 0.20 | 0.20 | 80 | 1018.0 |
| 20260903194533 | 20 | 197 | 0.0 | 0.0 | 0.00 | 0.20 | 0.20 | 79 | 1017.8 |
| 20260903193018 | 20 | 197 | 0.0 | 0.0 | 0.00 | 0.20 | 0.20 | 79 | 1017.6 |
| 20260903191514 | 20 | 197 | 0.0 | 0.0 | 0.00 | 0.20 | 0.20 | 79 | 1017.9 |
| 20260903190012 | 21 | 197 | 0.0 | 0.0 | 0.00 | 0.20 | 0.20 | 78 | 1017.9 |
| 20260903184511 | 21 | 197 | 0.0 | 0.0 | 0.00 | 0.20 | 0.20 | 78 | 1018.2 |
| 20260903183014 | 21 | 196 | 0.0 | 0.0 | 0.00 | 0.20 | 0.20 | 77 | 1017.9 |
| 20260903181510 | 21 | 188 | 0.0 | 0.0 | 0.00 | 0.20 | 0.20 | 76 | 1017.8 |
| 20260903180124 | 21 | 188 | 0.0 | 0.0 | 0.00 | 0.20 | 0.20 | 76 | 1017.8 |
| 20260903174509 | 22 | 188 | 0.0 | 0.0 | 0.00 | 0.20 | 0.20 | 75 | 1017.7 |
| 20260903173009 | 22 | 213 | 0.0 | 0.0 | 0.00 | 0.20 | 0.20 | 74 | 1017.9 |
| 20260903171508 | 22 | 205 | 0.0 | 0.0 | 0.00 | 0.20 | 0.20 | 73 | 1017.8 |
| 20260903170008 | 22 | 200 | 0.0 | 0.0 | 0.00 | 0.20 | 0.20 | 72 | 1017.6 |
| 20260903164508 | 22 | 198 | 0.0 | 0.0 | 0.00 | 0.20 | 0.20 | 71 | 1017.5 |
| 20260903163004 | 23 | 202 | 0.0 | 0.0 | 0.00 | 0.20 | 0.20 | 70 | 1017.6 |
| 20260903161600 | 22 | 194 | 0.0 | 0.0 | 0.00 | 0.20 | 0.20 | 71 | 1017.7 |
| 20260903160107 | 22 | 201 | 0.0 | 0.0 | 0.00 | 0.20 | 0.20 | 72 | 1017.8 |
| 20260903154558 | 22 | 205 | 0.0 | 14.5 | 0.00 | 0.20 | 0.20 | 73 | 1017.8 |
| 20260903153056 | 22 | 192 | 0.0 | 12.9 | 0.00 | 0.20 | 0.20 | 73 | 1018.0 |
| 20260903151557 | 22 | 209 | 0.0 | 24.1 | 0.00 | 0.20 | 0.20 | 73 | 1018.1 |
| 20260903150059 | 22 | 206 | 0.0 | 0.0 | 0.00 | 0.20 | 0.20 | 72 | 1018.0 |
| 20260903144557 | 22 | 194 | 0.0 | 0.0 | 0.00 | 0.20 | 0.20 | 73 | 1017.9 |
| 20260903143052 | 22 | 198 | 0.0 | 14.5 | 0.00 | 0.20 | 0.20 | 74 | 1018.0 |
| 20260903141549 | 21 | 189 | 0.0 | 17.7 | 0.00 | 0.20 | 0.20 | 75 | 1018.1 |
| 20260903140151 | 21 | 194 | 0.0 | 19.3 | 0.00 | 0.20 | 0.20 | 75 | 1018.4 |
| 20260903134548 | 21 | 194 | 0.0 | 0.0 | 0.00 | 0.20 | 0.20 | 75 | 1018.2 |
| 20260903133049 | 21 | 196 | 0.0 | 0.0 | 0.00 | 0.20 | 0.20 | 74 | 1018.0 |
| 20260903131546 | 21 | 205 | 0.0 | 17.7 | 0.00 | 0.20 | 0.20 | 74 | 1017.9 |
| 20260903130105 | 21 | 194 | 0.0 | 17.7 | 0.00 | 0.20 | 0.20 | 76 | 1017.9 |
| 20260903124541 | 20 | 196 | 0.0 | 0.0 | 0.00 | 0.20 | 0.20 | 79 | 1017.9 |
| 20260903123038 | 19 | 201 | 0.0 | 0.0 | 0.00 | 0.20 | 0.20 | 79 | 1018.1 |
| 20260903121545 | 19 | 207 | 0.0 | 0.0 | 0.03 | 0.20 | 0.20 | 78 | 1018.1 |
| 20260903120036 | 18 | 211 | 0.0 | 0.0 | 0.03 | 0.20 | 0.20 | 75 | 1018.1 |
| 20260903114536 | 18 | 180 | 0.0 | 0.0 | 0.03 | 0.20 | 0.20 | 75 | 1018.1 |
| 20260903113038 | 18 | 180 | 0.0 | 0.0 | 0.03 | 0.20 | 0.20 | 75 | 1018.0 |
| 20260903111535 | 18 | 180 | 0.0 | 0.0 | 0.00 | 0.18 | 0.18 | 75 | 1018.2 |
| 20260903110106 | 17 | 180 | 0.0 | 0.0 | 0.00 | 0.18 | 0.18 | 75 | 1018.0 |
| 20260903104532 | 17 | 180 | 0.0 | 0.0 | 0.00 | 0.18 | 0.18 | 76 | 1018.1 |
| 20260903103033 | 17 | 180 | 0.0 | 0.0 | 0.05 | 0.18 | 0.18 | 76 | 1018.0 |
| 20260903101532 | 17 | 180 | 0.0 | 0.0 | 0.18 | 0.18 | 0.18 | 77 | 1018.0 |
| 20260903100033 | 18 | 180 | 0.0 | 0.0 | 0.18 | 0.18 | 0.18 | 78 | 1018.1 |
| 20260903094547 | 18 | 180 | 0.0 | 0.0 | 0.18 | 0.18 | 0.18 | 80 | 1018.2 |
| 20260903093033 | 20 | 174 | 0.0 | 0.0 | 0.10 | 0.10 | 0.10 | 74 | 1018.2 |
| 20260903091528 | 20 | 175 | 0.0 | 0.0 | 0.00 | 0.00 | 0.00 | 66 | 1017.6 |
| 20260903090030 | 20 | 175 | 0.0 | 0.0 | 0.00 | 0.00 | 0.00 | 65 | 1017.7 |
| 20260903084525 | 20 | 171 | 0.0 | 0.0 | 0.00 | 0.00 | 0.00 | 67 | 1017.8 |
| 20260903083022 | 19 | 172 | 0.0 | 0.0 | 0.00 | 0.00 | 0.00 | 68 | 1017.7 |
| 20260903081528 | 19 | 172 | 0.0 | 0.0 | 0.00 | 0.00 | 0.00 | 69 | 1017.8 |
| 20260903080015 | 18 | 171 | 0.0 | 0.0 | 0.00 | 0.03 | 0.00 | 69 | 1017.8 |
| 20260903074514 | 18 | 171 | 0.0 | 0.0 | 0.00 | 0.03 | 0.00 | 69 | 1017.9 |
| 20260903073012 | 18 | 171 | 0.0 | 0.0 | 0.00 | 0.03 | 0.00 | 69 | 1018.0 |
| 20260903070004 | -17 | 0.0 | 0.0 | 0.00 | 0.03 | 0.00 | 1018.2 | ||
| 20260903064604 | -17 | 0.0 | 0.0 | 0.00 | 0.03 | 0.00 | 1018.0 | ||
| 20260903063055 | -17 | 0.0 | 0.0 | 0.00 | 0.03 | 0.00 | 1018.3 | ||
| 20260903061557 | -17 | 0.0 | 0.0 | 0.00 | 0.03 | 0.00 | 1018.0 | ||
| 20260903060052 | 16 | 190 | 0.0 | 0.0 | 0.00 | 0.03 | 0.00 | 74 | 1018.1 |
| 20260903054551 | 16 | 190 | 0.0 | 0.0 | 0.00 | 0.03 | 0.00 | 74 | 1017.7 |
| 20260903053104 | 16 | 190 | 0.0 | 0.0 | 0.00 | 0.03 | 0.00 | 74 | 1017.8 |
| 20260903051543 | 16 | 190 | 0.0 | 0.0 | 0.00 | 0.03 | 0.00 | 74 | 1018.1 |
| 20260903050039 | 16 | 191 | 0.0 | 0.0 | 0.00 | 0.03 | 0.00 | 75 | 1018.1 |
| 20260903044543 | 16 | 191 | 0.0 | 0.0 | 0.00 | 0.03 | 0.00 | 74 | 1018.0 |
| 20260903043030 | 16 | 192 | 0.0 | 0.0 | 0.00 | 0.03 | 0.00 | 74 | 1017.8 |
| 20260903041529 | 16 | 194 | 0.0 | 0.0 | 0.00 | 0.03 | 0.00 | 75 | 1018.0 |
| 20260903040023 | 16 | 197 | 0.0 | 0.0 | 0.00 | 0.03 | 0.00 | 75 | 1018.2 |